This demonstration page uses our WeatherBlox Daily Observations layout. Learn more.

Left ArrowRight Arrow

Hourly Observations for March 17, 2018

Temp ( °F °C ) Dew Point ( °F °C ) Humidity (%) Winds ( mph kmh ) Pressure ( in mb ) Visibility ( mi km ) Precip ( " mm )
12:53 am 00:53 Cloudy 32 0 30 -1.1 92 92 NW 14 22 29.92 1013 10 16 0.00 0.00
1:30 am 01:30 Cloudy 32 0 30 -1 93 93 NNW 13 20 29.97 1015 10 16 0.00 0.00
1:53 am 01:53 Cloudy 32 0 30 -1.1 92 92 NNW 12 19 29.92 1013 10 16 0.00 0.00
2:28 am 02:28 Cloudy 32 0 28 -2 87 87 NW 15 24 30.00 1016 10 16 0.00 0.00
2:53 am 02:53 Cloudy 32 0 30 -1.1 92 92 NW 13 20 29.95 1014 10 16 0.00 0.00
3:53 am 03:53 Cloudy 32 0 30 -1.1 92 92 NNW 13 20 29.95 1014 10 16 0.00 0.00
4:53 am 04:53 Cloudy 32 0 30 -1.1 92 92 NNW 13 20 29.96 1015 10 16 0.00 0.00
5:53 am 05:53 Cloudy 32 0 28 -2.2 85 85 NNW 14 22 29.98 1015 10 16 0.00 0.00
6:53 am 06:53 Cloudy 32 0 29 -1.7 88 88 NNW 14 22 30.01 1016 10 16 0.00 0.00
7:53 am 07:53 Cloudy 32 0 29 -1.7 88 88 NNW 14 22 30.03 1017 10 16 0.00 0.00
8:53 am 08:53 Cloudy 31 -0.6 29 -1.7 92 92 NNW 15 24 30.04 1017 10 16 0.00 0.00
9:53 am 09:53 Cloudy 32 0 29 -1.7 88 88 NNW 14 22 30.07 1018 10 16 0.00 0.00
10:53 am 10:53 Cloudy 33 0.6 30 -1.1 89 89 N 13 20 30.06 1018 10 16 0.00 0.00
11:53 am 11:53 Cloudy 34 1.1 31 -0.6 89 89 N 10 17 30.08 1019 10 16 0.00 0.00
12:53 pm 12:53 Cloudy 35 1.7 30 -1.1 82 82 N 8 13 30.08 1019 10 16 0.00 0.00
1:53 pm 13:53 Cloudy 36 2.2 31 -0.6 82 82 VRB 3 6 30.07 1018 10 16 0.00 0.00
2:53 pm 14:53 Cloudy 37 2.8 31 -0.6 79 79 ENE 3 6 30.06 1018 10 16 0.00 0.00
3:00 pm 15:00 Cloudy 37 3 30 -1 75 75 Calm 30.06 1018 10 16 0.00 0.00
3:14 pm 15:14 Cloudy 37 3 32 0 81 81 Calm 30.06 1018 10 16 0.00 0.00
3:39 pm 15:39 Cloudy 36 2.2 31 -0.6 82 82 SW 3 6 30.09 1019 10 16 0.00 0.00
3:49 pm 15:49 Cloudy 37 3 30 -1 75 75 Calm 30.06 1018 10 16 0.00 0.00
3:53 pm 15:53 Cloudy 37 2.8 32 0 82 82 Calm 30.05 1018 10 16 0.00 0.00
4:36 pm 16:36 Cloudy 38 3.3 32 0 79 79 N 3 6 30.06 1018 10 16 0.00 0.00
4:53 pm 16:53 Cloudy 37 2.8 31 -0.6 79 79 NW 3 6 30.04 1017 10 16 0.00 0.00
5:53 pm 17:53 Cloudy 38 3.3 31 -0.6 76 76 E 5 7 30.04 1017 10 16 0.00 0.00
6:53 pm 18:53 Cloudy 38 3.3 31 -0.6 76 76 N 6 9 30.03 1017 10 16 0.00 0.00
7:53 pm 19:53 Cloudy 37 2.8 31 -0.6 79 79 NE 5 7 30.03 1017 10 16 0.00 0.00
8:53 pm 20:53 Cloudy 36 2.2 32 0 86 86 NE 6 9 30.03 1017 10 16 0.00 0.00
9:53 pm 21:53 Cloudy 36 2.2 32 0 86 86 E 3 6 30.05 1018 10 16 0.00 0.00
10:53 pm 22:53 Cloudy 36 2.2 31 -0.6 82 82 ESE 5 7 30.06 1018 7 11 0.00 0.00
11:53 pm 23:53 Cloudy 35 1.7 31 -0.6 85 85 SE 7 11 30.06 1018 8 13 0.00 0.00

Powered by AerisWeather